Location: Estes Park
(40.3770°N, 105.5210°W)
Time: 20:13:03
(UTC-06:00)

POLYITAN 1 - Visible Passes

Search period start: 19 June 2018 00:00
Search period end: 29 June 2018 00:00
Orbit: 592 x 613 km, 97.9° (Epoch: 19 June)

Date Brightness Start Highest point End Pass type
(mag) Time Alt. Az. Time Alt. Az. Time Alt. Az.
19 Jun ? 01:27:53 10° N 01:31:31 61° NNW 01:31:31 61° NNW visible
20 Jun ? 00:06:05 10° ENE 00:06:49 12° ENE 00:06:49 12° ENE visible
20 Jun ? 01:39:57 10° N 01:43:38 48° NW 01:43:38 48° NW visible
21 Jun ? 00:17:14 10° NE 00:18:56 16° ENE 00:18:56 16° ENE visible
21 Jun ? 01:52:04 10° N 01:55:44 36° WNW 01:55:44 36° WNW visible
22 Jun ? 00:28:44 10° NE 00:31:02 21° ENE 00:31:02 21° ENE visible
22 Jun ? 02:04:16 10° N 02:07:50 27° WNW 02:07:51 27° WNW visible
23 Jun ? 00:40:24 10° NNE 00:43:08 28° ENE 00:43:08 28° ENE visible
23 Jun ? 02:16:35 10° NNW 02:19:42 21° WNW 02:19:56 21° WNW visible
24 Jun ? 00:52:10 10° NNE 00:55:14 37° ENE 00:55:14 37° ENE visible
24 Jun ? 02:29:02 10° NNW 02:31:34 16° WNW 02:32:02 15° WNW visible
25 Jun ? 01:04:01 10° NNE 01:07:19 49° NE 01:07:19 49° NE visible
25 Jun ? 02:41:51 10° NW 02:43:23 12° WNW 02:44:08 11° WNW visible
26 Jun ? 01:15:57 10° NNE 01:19:25 60° NNE 01:19:25 60° NNE visible
27 Jun ? 01:27:56 10° N 01:31:30 60° NNW 01:31:30 60° NNW visible
28 Jun ? 00:06:09 10° ENE 00:06:47 11° ENE 00:06:47 11° ENE visible
28 Jun ? 01:39:58 10° N 01:43:36 48° NW 01:43:36 48° NW visible
